weather station
Area: 7197 km2
The highest point: Čupec (819 m.s.l.)
Total stations: 36
Stations online: 32
Stations offline: 4
Current weather
-1°C

Meteorological map - weather stations in Jihomoravský

. The meteorological maps show weather information from WARIO weather stations

Weather stations Jihomoravský

 UpdatesNameStatusTemperatureHumidityWind speedWind direction
12.12.2018 18:44Adamov-2.9 °C100.0 %2.4 m/s N
12.12.2018 18:44Boskovice-2.8 °C88.3 %1.0 m/s SW
11.12.2018 17:23Brno - Vinohrady0.4 °C94.8 %3.9 m/s W
12.12.2018 18:44Brno - Komín-0.4 °C95.5 %1.2 m/s N
12.12.2018 18:44Brno-Kníničky-0.8 °C95.9 %0.0 m/s NW
12.12.2018 18:44Býkovice-3.0 °C100.0 %2.6 m/s SE
12.12.2018 00:42Bítov-0.5 °C98.7 %0.0 m/s S
12.12.2018 18:44Drnholec-0.1 °C94.1 %1.2 m/s NW
12.11.2018 00:17Lelekovice1.7 °C100.0 %0.9 m/s W
12.12.2018 18:44Letonice-1.5 °C98.7 %0.0 m/s SE
12.12.2018 18:44Hodonín1.5 °C4.5 %0.0 m/s N
12.12.2018 18:44Brno-1.4 °C95.5 %0.6 m/s NW
7.11.2018 13:10Pasohlávky11.8 °C75.3 %3.0 m/s W
12.12.2018 18:44Višňové-1.2 °C97.7 %0.0 m/s W
12.12.2018 18:43Vranov-3.2 °C100.0 %1.0 m/s W
12.12.2018 18:44Meteo B-2.2 °C96.4 %0.9 m/s SE
12.12.2018 18:44Dolní Dubňany-1.3 °C84.1 %0.9 m/s SW
12.12.2018 18:44Bzenec-0.4 °C95.1 %0.0 m/s N
12.12.2018 18:44Svatobořice-1.2 °C96.8 %0.6 m/s SW
12.12.2018 18:44Moravské Bránice-0.2 °C88.2 %1.0 m/s SE
12.12.2018 18:44Pohořelice-0.3 °C93.9 %0.0 m/s W
12.12.2018 18:44Brno - Jih0.1 °C80.5 %1.7 m/s S
12.12.2018 18:44Rousínov-1.0 °C86.5 %1.9 m/s S
12.12.2018 18:44Senorady-1.2 °C93.0 %0.6 m/s NW
12.12.2018 18:44Šerkovice-1.2 °C100.0 %0.0 m/s N
12.12.2018 18:44Skalice u Znojma0.8 °C100.0 %0.0 m/s N
12.12.2018 18:44Šlapanice-1.1 °C84.0 %0.6 m/s N
12.12.2018 18:44Kuřim-1.8 °C95.9 %1.2 m/s E
12.12.2018 18:44Strážnice-1.2 °C100.0 %0.0 m/s SE
12.12.2018 18:44Strážnice GUMEX-1.3 °C89.2 %1.8 m/s SW
12.12.2018 18:44Valtice-0.2 °C100.0 %0.0 m/s S
12.12.2018 18:44Velatice-1.5 °C91.4 %0.6 m/s E
12.12.2018 18:44Veselí nad Moravou-1.0 °C96.9 %0.0 m/s S
12.12.2018 18:44Lipov - Vinařství a penzion Kostelanský-2.2 °C94.3 %0.0 m/s E
12.12.2018 18:44Vrbovec-0.9 °C93.6 %0.0 m/s E
12.12.2018 18:44Rájec-Jestřebí-3.3 °C96.8 %1.2 m/s SW
Email notifications
Enter your email address to subscribe to notifications about news at warioweather.com. Your email address will not be used for any purpose other than sending these emails and will not be provided to any third party. The subscription can be ended at any time.
All data are only indicative. The portal administrator has no responsibility for potentially incorrect data and related consequences. Publishing or further sharing of content from www.warioweather.com is only allowed with written consent from WANET s.r.o.